Wind_Speed
9 7 5 5 6 7 10 13 15 16 16 17 17 16 16 15 14 12 11 10 10 9 8 7 6 5 4 3 3 2 1 1 1 1 1 0 0 0 0 1 2 3 4
8 7 7 6 7 7 9 11 14 15 15 17 17 16 16 16 13 12 11 11 11 10 9 8 7 6 4 4 3 2 2 1 1 1 1 1 1 1 1 1 1 1 2
8 7 7 6 6 6 8 11 13 15 15 16 16 16 16 15 14 12 11 12 11 11 10 9 8 7 5 4 4 3 2 2 1 0 0 1 1 1 1 1 1 1 1
8 7 6 5 5 5 6 10 12 13 15 15 15 15 15 15 15 13 13 13 12 12 12 10 9 8 7 6 5 5 4 3 2 2 2 2 2 2 2 2 2 2 3
8 6 6 5 5 5 6 9 11 13 14 14 14 14 15 15 15 14 14 13 13 13 13 12 11 9 8 7 6 6 5 5 4 4 4 4 4 4 4 4 4 4 5
7 6 5 5 5 5 6 8 11 13 14 15 15 14 15 16 15 14 14 13 13 13 14 13 12 11 10 9 8 8 8 7 6 6 6 6 6 6 6 6 7 7 7
7 6 5 5 5 6 6 7 11 14 14 15 15 14 15 16 16 15 14 14 14 14 15 15 13 13 12 11 11 10 10 10 9 9 9 9 9 9 9 10 10 10 10
8 6 5 5 5 5 6 7 10 13 14 15 16 15 16 17 16 16 15 15 15 15 16 16 15 15 14 14 13 13 13 13 12 12 12 12 12 12 13 13 13 13 13
7 6 6 6 6 5 5 7 8 10 13 14 15 16 16 16 17 16 16 16 16 16 16 16 17 16 16 16 16 16 16 16 16 16 15 15 16 16 16 16 17 17 17
8 6 6 6 6 5 5 5 6 8 11 14 15 16 16 16 17 17 17 18 17 17 17 18 18 18 19 18 19 19 19 19 19 19 19 19 19 20 20 20 20 20 21
8 7 6 6 6 5 5 5 6 8 10 13 15 16 16 16 16 16 17 18 18 19 19 19 20 20 21 21 21 21 21 22 22 23 23 23 23 23 24 24 24 24 24
9 7 7 7 7 6 6 6 7 8 10 12 14 16 17 17 17 17 18 19 19 20 21 21 22 22 22 23 23 24 24 25 25 26 26 27 27 27 28 28 28 28 29
10 8 8 8 8 8 7 7 7 8 9 11 14 16 17 17 18 18 19 20 20 21 22 23 23 23 23 24 26 26 27 27 28 28 29 30 30 30 31 31 32 32 32
11 10 9 8 8 8 8 7 7 8 9 10 11 13 15 16 18 18 19 20 21 22 23 24 24 25 25 27 27 28 29 30 31 31 32 32 33 33 34 34 35 35 35
12 11 10 10 10 10 9 9 9 9 9 10 11 12 13 14 16 17 18 20 21 22 22 23 24 26 27 29 30 31 31 32 32 33 34 35 35 36 37 37 38 38 38
15 14 13 12 12 12 11 11 11 11 11 11 12 13 14 14 15 16 18 19 21 22 22 24 25 27 28 29 30 32 33 33 33 34 35 36 37 38 38 39 40 40 40
17 16 15 14 13 13 13 13 12 12 12 12 13 14 15 16 16 17 18 19 21 22 23 24 25 26 27 29 30 31 33 34 35 36 37 38 39 40 42 43 43 43 43
19 18 17 16 16 15 15 15 15 14 14 14 15 15 15 16 17 18 19 20 22 23 24 25 27 28 29 30 31 33 35 36 37 38 39 40 41 41 42 43 43 43 43
20 20 19 19 18 17 17 18 18 16 15 16 16 17 17 17 18 19 21 22 23 24 26 27 28 30 31 33 35 36 37 39 39 40 40 41 42 43 43 44 44 45 47
22 21 21 21 20 20 19 19 19 19 18 18 18 19 19 20 21 22 22 23 24 25 27 28 30 32 33 34 35 37 38 39 40 41 42 42 44 44 44 45 46 47 48
23 23 22 22 22 21 21 21 20 20 21 21 21 21 22 23 24 24 24 25 26 27 29 30 31 33 34 36 36 38 39 40 41 42 43 44 46 47 47 47 47 48 49
25 25 25 24 24 24 23 23 23 22 22 23 23 23 24 25 26 26 27 27 28 30 31 32 34 35 36 37 39 40 41 42 43 44 45 45 46 47 48 48 48 49 50
27 26 26 26 26 26 25 25 25 24 24 24 25 26 26 26 27 27 28 29 30 31 33 34 35 37 38 39 41 42 43 44 45 46 47 49 50 51 51 51 52 52 53
28 27 27 27 26 27 27 26 26 26 26 26 26 26 27 27 27 28 29 30 31 33 34 36 37 39 40 42 43 44 45 46 48 49 50 51 53 54 54 55 56 56 57
28 27 27 27 27 27 26 26 26 26 26 26 26 27 28 28 28 29 30 32 33 34 36 37 39 40 41 42 44 45 46 48 50 52 53 55 56 57 57 58 58 58 58
28 28 28 27 26 26 25 25 25 25 25 26 26 27 28 28 30 31 33 34 35 36 38 39 41 42 44 45 47 48 50 51 52 53 54 55 56 57 57 57 57 57 57
Wind_Direction
323 320 309 291 276 250 230 222 215 216 217 214 215 217 213 209 207 208 210 209 209 205 202 196 193 189 186 182 170 153 138 129 109 95 81 57 66 13 264 251 246 251 250
320 313 304 293 282 263 238 224 216 215 217 215 215 212 207 204 204 207 209 207 206 204 201 197 196 194 195 195 187 176 165 158 145 96 47 56 68 59 25 344 296 264 257
325 316 309 302 292 272 236 220 215 216 216 216 213 208 208 209 209 211 209 207 207 207 204 201 202 203 205 204 200 196 196 202 204 184 2 7 19 25 24 360 333 299 287
327 320 313 298 288 269 234 213 212 214 215 213 210 210 212 210 212 212 209 208 209 209 208 208 210 213 215 216 217 219 224 226 231 243 265 291 315 326 334 322 310 302 298
329 325 320 311 295 269 241 219 214 213 217 214 215 215 213 212 210 209 208 210 212 215 215 215 217 221 225 225 227 231 235 237 244 255 262 273 284 292 301 303 301 300 297
329 326 320 316 300 279 246 226 217 212 213 213 216 217 216 213 211 211 212 215 219 222 222 221 223 227 231 232 234 238 241 244 248 257 264 270 276 282 286 291 291 290 291
332 325 320 314 294 277 257 238 225 218 215 214 215 217 217 215 215 216 218 220 223 225 226 227 229 231 234 236 239 243 245 248 253 258 264 269 274 278 282 285 286 286 286
331 324 319 321 308 282 258 245 233 221 219 219 219 216 217 216 217 220 222 224 226 228 229 231 234 237 239 241 244 248 250 252 256 259 263 267 272 275 279 282 285 285 283
328 322 316 317 312 294 267 250 238 224 221 221 221 217 215 216 219 223 226 228 230 231 233 237 238 241 244 246 249 251 253 255 258 260 263 267 270 273 277 279 281 282 282
322 317 316 316 309 298 289 271 252 234 224 222 222 219 219 222 224 229 231 231 233 235 237 241 242 245 248 251 252 254 255 257 259 262 264 267 270 273 275 277 279 280 280
313 307 305 314 311 300 292 280 262 247 232 227 225 224 225 227 228 232 234 234 238 240 243 245 246 248 251 254 256 258 259 260 262 264 267 268 269 272 274 276 278 279 279
304 302 298 302 307 296 288 278 263 250 239 232 229 228 229 230 233 239 240 240 244 247 249 250 250 251 254 257 259 261 262 263 264 266 268 270 271 272 273 274 276 277 278
297 298 295 293 294 291 286 279 265 254 245 244 242 237 235 238 242 244 246 247 248 250 253 253 253 255 258 260 263 264 264 265 266 268 269 270 271 272 272 274 274 276 277
286 288 288 287 291 288 280 275 269 265 254 250 248 245 243 245 246 249 251 252 254 255 257 256 256 258 261 262 264 266 267 267 268 269 270 271 271 272 272 273 273 274 276
277 280 280 279 283 284 277 270 269 269 267 263 257 255 253 252 251 253 254 255 256 257 262 262 262 263 264 264 266 268 270 271 271 271 271 272 272 272 273 273 273 274 275
269 272 275 275 276 275 272 270 268 268 270 270 267 264 258 256 255 257 260 261 261 264 267 268 269 268 269 269 270 271 273 274 273 273 273 274 274 275 276 276 275 274 274
268 268 270 273 271 270 269 267 267 267 270 271 271 268 263 261 261 263 264 265 266 268 269 271 272 273 273 273 274 275 276 276 276 276 277 276 277 277 277 277 277 277 275
263 263 265 267 267 267 266 265 265 267 268 270 271 268 268 268 267 268 269 270 271 272 272 274 275 276 276 277 277 277 277 278 277 277 277 277 278 278 279 278 276 276 276
260 260 262 265 265 264 266 265 264 267 271 272 271 268 267 270 272 273 275 274 273 274 275 276 277 277 278 278 279 279 279 279 279 278 277 277 277 278 280 281 279 278 278
257 257 261 263 262 263 264 264 263 265 269 272 271 271 269 272 275 275 276 276 275 276 277 277 277 278 279 280 282 282 281 280 280 280 279 279 279 280 282 281 280 279 279
253 255 258 259 260 260 262 261 263 265 267 269 270 271 271 272 274 274 275 276 276 278 278 279 279 279 280 281 281 281 281 280 280 280 281 281 279 280 280 281 280 279 279
250 252 254 255 256 257 259 260 261 263 266 267 269 271 272 272 273 274 275 276 277 279 280 280 280 281 281 282 282 282 281 282 282 281 281 280 280 281 280 280 281 280 279
247 249 252 253 256 258 259 259 261 263 266 269 271 273 274 273 272 274 276 278 279 280 281 282 282 282 283 283 284 284 284 283 283 282 281 281 281 282 281 282 282 281 280
246 248 251 254 256 257 259 260 262 264 266 269 272 273 274 275 276 277 279 280 281 283 284 284 284 284 284 284 285 284 284 284 283 283 282 282 282 281 281 282 282 282 281
246 247 250 254 258 257 256 258 261 263 267 270 273 275 277 277 278 280 283 284 284 285 285 286 286 286 286 286 286 286 285 285 285 285 284 284 284 283 283 283 283 282 282
243 245 249 253 256 256 257 259 263 266 269 273 275 277 278 280 282 284 285 286 288 288 288 289 289 289 289 289 288 288 287 287 287 287 286 286 285 285 284 284 284 283 283
Height
5846 5845 5844 5843 5842 5842 5843 5845 5846 5849 5851 5854 5857 5859 5861 5864 5867 5869 5871 5872 5874 5875 5877 5878 5879 5880 5881 5881 5882 5882 5881 5881 5882 5882 5881 5881 5880 5880 5879 5879 5879 5879 5879
5845 5844 5843 5842 5842 5841 5841 5842 5844 5847 5850 5852 5855 5857 5860 5862 5865 5867 5869 5871 5873 5874 5876 5877 5879 5880 5881 5881 5882 5882 5882 5882 5882 5882 5882 5881 5881 5880 5880 5879 5879 5879 5878
5844 5843 5842 5841 5840 5839 5839 5841 5843 5845 5848 5850 5853 5855 5858 5861 5863 5865 5867 5870 5871 5873 5875 5876 5878 5879 5880 5881 5881 5882 5882 5882 5882 5882 5882 5882 5881 5881 5880 5880 5879 5879 5879
5843 5842 5841 5840 5839 5838 5838 5839 5842 5844 5846 5848 5851 5853 5856 5859 5861 5863 5866 5868 5870 5872 5874 5875 5877 5878 5879 5880 5881 5881 5881 5882 5882 5882 5882 5882 5881 5881 5881 5880 5880 5879 5879
5842 5841 5840 5839 5838 5837 5837 5838 5840 5842 5844 5846 5849 5851 5854 5857 5859 5862 5864 5866 5868 5870 5872 5874 5876 5877 5878 5879 5880 5880 5881 5881 5881 5881 5881 5881 5881 5881 5880 5880 5880 5879 5878
5841 5840 5839 5837 5837 5836 5836 5837 5838 5840 5842 5845 5847 5849 5852 5855 5858 5860 5862 5864 5866 5868 5870 5872 5874 5875 5876 5877 5878 5879 5879 5880 5880 5880 5880 5880 5880 5880 5880 5879 5879 5878 5878
5840 5839 5838 5836 5835 5835 5835 5835 5836 5838 5840 5842 5845 5847 5850 5853 5855 5858 5860 5862 5864 5866 5868 5870 5872 5873 5874 5875 5876 5877 5877 5878 5878 5878 5878 5879 5879 5878 5878 5878 5877 5877 5876
5839 5838 5837 5836 5835 5834 5834 5834 5835 5836 5838 5840 5842 5845 5848 5850 5853 5855 5858 5860 5862 5864 5866 5867 5869 5870 5871 5872 5873 5874 5875 5875 5875 5875 5876 5876 5876 5876 5876 5875 5875 5874 5874
5838 5837 5836 5835 5834 5833 5833 5833 5833 5834 5836 5838 5840 5843 5845 5848 5851 5853 5855 5857 5859 5861 5863 5864 5865 5867 5868 5869 5870 5870 5871 5871 5872 5872 5872 5872 5872 5872 5872 5872 5871 5871 5870
5837 5836 5835 5834 5833 5832 5832 5832 5832 5833 5834 5836 5838 5840 5843 5845 5847 5849 5852 5854 5856 5857 5859 5860 5862 5863 5864 5865 5866 5866 5867 5867 5867 5868 5868 5868 5868 5868 5867 5867 5867 5866 5866
5836 5835 5834 5833 5833 5832 5831 5831 5831 5831 5832 5833 5836 5838 5840 5842 5844 5846 5848 5850 5852 5853 5855 5856 5857 5859 5860 5860 5861 5861 5862 5862 5862 5863 5863 5863 5863 5862 5862 5862 5861 5860 5860
5834 5833 5832 5832 5831 5831 5830 5830 5830 5830 5830 5831 5833 5836 5838 5840 5841 5843 5845 5846 5848 5849 5850 5851 5852 5853 5854 5855 5855 5856 5856 5856 5856 5857 5857 5857 5856 5856 5856 5855 5855 5854 5853
5832 5831 5831 5830 5830 5829 5829 5828 5828 5828 5829 5830 5831 5833 5835 5836 5838 5839 5841 5842 5843 5844 5845 5846 5847 5848 5848 5849 5849 5849 5849 5850 5850 5850 5850 5849 5849 5849 5848 5848 5847 5846 5845
5829 5829 5829 5828 5828 5827 5827 5827 5827 5827 5827 5828 5828 5830 5831 5832 5834 5835 5836 5837 5838 5839 5840 5840 5841 5842 5842 5842 5842 5842 5842 5842 5842 5842 5842 5841 5841 5840 5840 5839 5838 5837 5837
5826 5826 5826 5826 5825 5825 5825 5825 5825 5825 5825 5825 5826 5827 5827 5828 5829 5830 5831 5832 5833 5834 5834 5835 5835 5835 5835 5835 5835 5835 5835 5834 5833 5833 5833 5832 5831 5831 5830 5830 5829 5828 5827
5822 5822 5822 5822 5822 5822 5822 5822 5823 5823 5823 5823 5823 5823 5823 5824 5825 5826 5827 5827 5828 5828 5828 5828 5828 5828 5828 5828 5828 5827 5827 5826 5825 5824 5823 5822 5822 5821 5820 5819 5817 5817 5816
5817 5818 5818 5819 5819 5819 5819 5819 5819 5820 5820 5820 5819 5819 5819 5820 5821 5822 5822 5822 5823 5823 5822 5822 5821 5821 5821 5821 5820 5819 5818 5817 5816 5815 5813 5812 5811 5810 5808 5807 5806 5805 5803
5813 5813 5814 5814 5814 5815 5815 5815 5816 5816 5816 5816 5816 5815 5815 5816 5816 5817 5817 5817 5817 5817 5816 5815 5815 5814 5814 5813 5812 5811 5809 5808 5806 5805 5803 5802 5800 5799 5797 5795 5794 5792 5791
5808 5808 5809 5809 5810 5810 5810 5811 5811 5812 5812 5812 5811 5811 5811 5811 5811 5812 5811 5811 5811 5810 5809 5809 5808 5807 5806 5805 5803 5802 5800 5798 5796 5794 5792 5791 5789 5787 5785 5783 5781 5780 5778
5802 5803 5803 5804 5804 5805 5805 5806 5806 5807 5807 5807 5806 5806 5806 5806 5806 5806 5805 5805 5804 5803 5802 5801 5800 5798 5797 5795 5794 5792 5790 5788 5786 5783 5781 5779 5777 5775 5772 5770 5769 5767 5765
5796 5797 5798 5798 5799 5799 5800 5801 5801 5801 5802 5801 5801 5801 5801 5800 5800 5799 5799 5798 5797 5795 5794 5792 5791 5789 5787 5786 5784 5782 5779 5777 5775 5772 5770 5767 5765 5762 5759 5757 5755 5753 5751
5790 5791 5792 5792 5793 5794 5794 5795 5795 5796 5796 5795 5795 5795 5794 5794 5793 5792 5791 5790 5789 5787 5786 5784 5782 5780 5778 5776 5773 5771 5769 5766 5764 5761 5758 5755 5752 5749 5747 5744 5741 5739 5736
5783 5784 5785 5786 5787 5788 5788 5789 5789 5789 5789 5789 5789 5788 5787 5786 5785 5784 5783 5782 5780 5779 5777 5775 5773 5770 5768 5765 5763 5760 5757 5754 5751 5748 5745 5742 5739 5735 5733 5730 5727 5724 5722
5775 5777 5778 5779 5780 5781 5781 5782 5783 5783 5782 5782 5782 5781 5780 5779 5778 5777 5775 5774 5772 5770 5767 5765 5762 5760 5757 5754 5751 5748 5745 5741 5738 5734 5731 5727 5724 5720 5717 5714 5711 5708 5705
5768 5769 5771 5772 5773 5774 5774 5775 5775 5775 5775 5775 5774 5773 5772 5771 5769 5768 5766 5764 5762 5760 5757 5755 5752 5748 5745 5741 5738 5734 5730 5727 5723 5719 5715 5711 5708 5704 5700 5697 5694 5690 5687
5761 5762 5764 5765 5765 5766 5767 5767 5768 5768 5768 5767 5766 5765 5764 5762 5761 5759 5757 5754 5752 5749 5746 5743 5739 5736 5732 5728 5724 5720 5716 5711 5707 5703 5699 5695 5690 5686 5683 5679 5675 5672 5669